Showing default

ANTELSAT, 40034

Orbit data source: Space-Track

ANTELSAT, 40034 is an Uruguayan payload satellite in SSO that was launched on Thu, 19 Jun 2014 UTC via a DNEPR launch vehicle from the Orenburg, Russia (OREN). Payload-class satellites include a variety of spacecraft equipped with specific instruments for various scientific and technological missions. These include communications satellites like Starlink; space stations such as the ISS; scientific satellites like the Hubble; Earth observation satellites from companies like Planet Labs, Umbra, and HawkEye 360; GPS; miniature CubeSats for education and research; and military/defense satellites.

Loading next visibility...
Identifier
40034, 2014-033AA
Orbit
SSO
Country
Flag of UYUY / URY
Related business
Manufacturer
UdelaR FING
Mission
Non-operational Civil Tech/Com
Bus & Motor
CUBESAT 2U, Unknown motor
Mass
~2 kg wet, ~2 kg dry
Launch date (UTC)
2014-06-19 (12 years ago)
Launch vehicle
DNEPR
Launch site
Orenburg, Russia (OREN)
Object type
Payload
Rocket body
Debris
Shape & HBR
Box + 1 Ant, 0.1 m
Radar Cross Section
0.040 m², Medium (>0.1 m² and < 1m²)

Expand to show TLE details & history
Last TLE update: 1 day ago

TLE from 1 day ago
0 ANTELSAT
1 40034U 14033AA  26191.22034880  .00001597  00000-0  16451-3 0  9990
2 40034  97.7797 346.6585 0042488 341.9376  18.0330 14.91041847649244
Epoch: 2026-07-10T05:17Z
TLE epoch observation values (Epoch: 2026-07-10T05:17:18.136Z)
Latitude
-0.00005°
Longitude
-20.81811°
Altitude
569.561 km
Speed
7.591 km/s
True Right ascension
23h 06m 38s
True Declination
0° 00' 00"
Sunlit
Object was in full shadow at epoch
Visualization orbit readout
Latitude
Unknown
Longitude
Unknown
Altitude
Unknown
Speed
Unknown
Apparent Right ascension
Unknown
Apparent Declination
Unknown
Sunlit
N/A
Visualization observer readout
Local Sidereal Time
03:05:04
Azimuth
Unknown
Elevation
Unknown
Doppler factor
Unknown
Orbital elements
Apogee altitude
621.32 km
Perigee altitude
562.093 km
Semi-major axis
6,969.843 km
Eccentricity
0.00425
Inclination
97.7797°
RAAN
346.6585°
Arg. of periapsis
341.9376°
True anomaly
18.18448°
Mean anomaly
18.033°
Eccentric anomaly
18.10867°
Mean motion
3.73 °/min
Orbital period
96.51 mins
BSTAR
0.00016451
Loading maneuver chart data...
Computing Atmospheric mass density...
Loading historical data...
Loading historical data...
Loading historical data...
Loading historical data...
Loading historical data...
Loading historical data...
Loading historical data...

Documentation

Showing up to 5 results
|